Flag for Germany Weather past 2 weeks in Weil am Rhein, Baden-Württemberg, Germany

Now
50 °F

Passing clouds.


Feels Like: 50 °F
Forecast: 49 / 68 °F
Wind: No wind

Location: Bale-Mulhouse

Current Time: Aug 22, 2014 at 6:28:35 AM

Latest Report: Aug 22, 2014 at 5:00 AM


Visibility: 19 mi

Pressure: 30.04 "Hg

Humidity: 95%

Dew point: 48 °F

Location of Weil am RheinLocation

Historic Weather in Weil am Rhein — Graph

°F

Weil am Rhein temperature yesterday

Maximum temperature yesterday: 69 °F (at 5:00 PM)
Minimum temperature yesterday: 47 °F (at 7:00 AM)
Average temperature yesterday: 59 °F

Past Weeks' High & Low Weather Summary

 TemperatureHumidityPressure
High83 °F (Aug 8, 6:00 PM)98% (Aug 8, 2:00 AM)30.20 "Hg (Aug 8, 2:00 AM)
Low47 °F (Aug 21, 7:00 AM)44% (Aug 19, 5:00 PM)29.67 "Hg (Aug 13, 9:00 AM)
Average63 °F78%29.97 "Hg
* Reported Aug 7 5:00 AM — Aug 22 5:00 AM, Weil am Rhein, Weather by CustomWeather, © 2014

Note: Actual official high and low records may vary slightly from our data, if they occured in-between our weather recording intervals... More about our weather records

Advertising

Weil am Rhein weather history for previous 24 hours

 ConditionsComfort  
Time TempWeatherWind HumidityBarometerVisibility
5:00 AM
Aug 22
50 °FPassing clouds.No wind95%30.04 "Hg19 mi
4:00 AM52 °FCool.No wind92%30.05 "Hg34 mi
3:00 AM53 °FOvercast.2 mph90%30.05 "Hg14 mi
2:00 AM54 °FOvercast.No wind92%30.05 "Hg37 mi
1:00 AM53 °FOvercast.2 mph89%30.05 "Hg31 mi
12:00 AM56 °FPassing clouds.1 mph76%30.04 "Hg31 mi
11:00 PM
Aug 21
58 °FOvercast.3 mph70%30.04 "Hg31 mi
10:00 PM59 °FOvercast.2 mph73%30.04 "Hg31 mi
9:00 PM61 °FOvercast.7 mph59%30.02 "Hg31 mi
8:00 PM64 °FPartly sunny.5 mph54%30.01 "Hg31 mi
7:00 PM68 °FPartly sunny.7 mph47%30.00 "Hg31 mi
6:00 PM68 °FPartly sunny.6 mph46%30.00 "Hg31 mi
5:00 PM69 °FPartly sunny.8 mph47%30.00 "Hg31 mi
4:00 PM67 °FPartly sunny.6 mph47%30.02 "Hg31 mi
3:00 PM67 °FOvercast.5 mph48%30.03 "Hg31 mi
2:00 PM67 °FPartly sunny.5 mph46%30.04 "Hg31 mi
1:00 PM67 °FPartly sunny.2 mph48%30.05 "Hg25 mi
12:00 PM65 °FPartly sunny.3 mph55%30.06 "Hg25 mi
11:00 AM64 °FPartly sunny.2 mph60%30.07 "Hg25 mi
10:00 AM60 °FPassing clouds.2 mph69%30.08 "Hg25 mi
9:00 AM58 °FCool.2 mph80%30.09 "Hg18 mi
8:00 AM51 °FPassing clouds.No wind97%30.10 "Hg12 mi
7:00 AM47 °FPassing clouds.2 mph97%30.11 "Hg9 mi
6:00 AM48 °FPassing clouds.1 mph94%30.10 "Hg16 mi
Weather by CustomWeather, © 2014

See weather overviewHow to use our weather pages